User: anonymous   Login
Location: Shell Point
(30.0571°N, 84.2896°W)
Time: 08:19:20
(UTC-04:00)
Language:

Meteor 2-19 Rocket - Orbit

View from above orbital plane
View from above orbital plane
View from above satellite
View from above satellite

Ground track
Ground track

The orbit data is extracted from the following two-line orbital elements,

1 20671U 90057B   17293.95818790 +.00000004 +00000-0 -94289-5 0  9998
2 20671 082.5442 272.1313 0014471 328.3540 031.6749 13.84610337380191
Epoch (UTC): 20 October 2017 22:59:47
Eccentricity: 0.0014471
inclination: 82.5442°
perigee height: 937 km
apogee height: 958 km
right ascension of ascending node: 272.1313°
argument of perigee: 328.3540°
revolutions per day: 13.84610337
mean anomaly at epoch: 31.6749°
orbit number at epoch: 38019

The dashed part of the orbit path shows where the satellite is in the earth's shadow,  

DLR